Location: Maiden
(35.5760°N, 81.2120°W)
Time: 02:13:08
(UTC-04:00)

Vanguard 2 - Pass Details

Date: 11 August 2020
Orbit: 553 x 2937 km, 32.9° (Epoch: 20 September)

Event Time Altitude Azimuth Distance (km) Brightness Sun altitude
Rises 20:07:38 0° 229° (SW) 6,611 12.8 1.2°
Reaches altitude 10° 20:12:03 10° 225° (SW) 5,707 12.4 0.3°
Maximum altitude 20:29:10 55° 155° (SSE) 3,183 10.4 -3.0°
Drops below altitude 10° 20:43:04 10° 83° (E) 4,744 11.0 -5.6°
Sets 20:46:20 0° 79° (E) 5,475 11.4 -6.2°
